Hourly Data Report for January 11, 2018

All times are specified in Local Standard Time (LST). Add 1 hour to adjust for Daylight Saving Time where and when it is observed.

PENTICTON A
BRITISH COLUMBIA

49°27'45.000" N
119°36'08.000" W
344.40 m
1126146
71889
YYF

Download Data

Hourly Data (January 2018)
Hourly Data Report for January 11, 2018
Temp Definition
°C
Dew Point Temp Definition
°C
Rel Hum Definition
%
Wind Dir Definition
10's deg

Wind Spd Definition
km/h
Visibility Definition
km
Stn Press Definition
kPa
Hmdx Definition


Wind Chill Definition


Weather Definition


TIME
00:00 Legend Double Dagger 1.3 -2.3 77 36 4 24.1 97.77     Snow
01:00 Legend Double Dagger 0.4 -2.5 81 3 9 16.1 97.81     Snow
02:00 Legend Double Dagger 0.3 -3.4 76 36 10 16.1 97.78     LegendNANA
03:00 Legend Double Dagger 0.6 -4.2 70 4 15 16.1 97.83     Snow
04:00 Legend Double Dagger -0.1 -4.9 70 3 14 16.1 97.83   -4 Snow
05:00 Legend Double Dagger -0.9 -4.8 75 1 18 8.1 97.79   -6 Snow
06:00 Legend Double Dagger -1.7 -4.5 81 2 17 4.8 97.76   -7 Snow
07:00 Legend Double Dagger -2.3 -5.4 79 3 19 9.7 97.74   -8 Snow
08:00 Legend Double Dagger -2.7 -5.1 84 2 13 3.2 97.74   -7 Snow
09:00 Legend Double Dagger -3.1 -4.9 88 2 16 2.4 97.74   -8 Snow
10:00 Legend Double Dagger -3.0 -5.4 83 2 16 4.0 97.64   -8 Snow
11:00 Legend Double Dagger -2.8 -6.1 78 2 18 8.1 97.57   -8 Snow
12:00 Legend Double Dagger -3.0 -5.7 81 1 14 4.8 97.45   -8 Snow
13:00 Legend Double Dagger -3.4 -5.0 89 36 16 1.6 97.35   -9 Snow
14:00 Legend Double Dagger -3.6 -4.8 91 1 14 1.2 97.25   -9 Snow
15:00 Legend Double Dagger -3.5 -4.8 91 2 13 1.2 97.24   -8 Snow
16:00 Legend Double Dagger -3.5 -5.0 89 3 12 1.6 97.28   -8 Snow
17:00 Legend Double Dagger -3.5 -4.8 91 1 16 2.4 97.31   -9 Snow
18:00 Legend Double Dagger -3.4 -4.9 89 1 10 4.8 97.40   -7 Snow
19:00 Legend Double Dagger -3.4 -4.8 90 36 5 8.1 97.50   -5 Snow
20:00 Legend Double Dagger -3.4 -4.9 90 35 7 9.7 97.60   -6 Snow
21:00 Legend Double Dagger -3.3 -5.1 87 34 7 6.4 97.70   -6 Snow
22:00 Legend Double Dagger -3.4 -5.2 87 36 9 6.4 97.78   -7 Snow
23:00 Legend Double Dagger -3.5 -5.5 86 35 9 8.1 97.92   -7 Snow

Notes on Data Quality.

Legend

  • E = Estimated
  • M = Missing
  • NA = Not Available
  • ‡ = Partner data that is not subject to review by the National Climate Archives
Date modified: